Stündliche Wetter Abak

Heute, 7 März, Sonntag

Zeit Temperatur Niederschläge Wind Luftdruck Luftfeuchtigkeit
00:00 +29°C° 0 mm 2 m/S 753 mmHg 79%
01:00 +29°C° 0 mm 2 m/S 753 mmHg 80%
02:00 +29°C° 0 mm 1 m/S 753 mmHg 82%
03:00 +28°C° 0 mm 1 m/S 753 mmHg 84%
04:00 +26°C° 0 mm 0 m/S 752 mmHg 86%
05:00 +26°C° 0 mm 0 m/S 753 mmHg 86%
06:00 +26°C° 0 mm 0 m/S 753 mmHg 86%
07:00 +26°C° 0 mm 0 m/S 754 mmHg 86%
08:00 +30°C° 0 mm 1 m/S 754 mmHg 76%
09:00 +32°C° 0 mm 1 m/S 754 mmHg 66%
10:00 +34°C° 0 mm 1 m/S 755 mmHg 56%
11:00 +36°C° 0 mm 2 m/S 754 mmHg 53%
12:00 +36°C° 0 mm 2 m/S 754 mmHg 50%
13:00 +37°C° 0 mm 2 m/S 753 mmHg 47%
14:00 +37°C° 0.3 mm 2 m/S 752 mmHg 48%
15:00 +36°C° 0.3 mm 3 m/S 751 mmHg 49%
16:00 +36°C° 0.3 mm 3 m/S 751 mmHg 51%
17:00 +34°C° 0.2 mm 3 m/S 751 mmHg 57%
18:00 +33°C° 0.2 mm 3 m/S 751 mmHg 63%
19:00 +32°C° 0.2 mm 4 m/S 752 mmHg 69%
20:00 +30°C° 0.4 mm 3 m/S 752 mmHg 72%
21:00 +30°C° 0.4 mm 3 m/S 752 mmHg 75%
22:00 +29°C° 0.4 mm 3 m/S 753 mmHg 78%
23:00 +29°C° 0 mm 2 m/S 753 mmHg 80%

Morgen, 8 März, Montag

Zeit Temperatur Niederschläge Wind Luftdruck Luftfeuchtigkeit
00:00 +29°C° 0 mm 2 m/S 753 mmHg 82%
01:00 +28°C° 0 mm 2 m/S 753 mmHg 84%
02:00 +28°C° 0 mm 1 m/S 752 mmHg 85%
03:00 +28°C° 0 mm 1 m/S 752 mmHg 87%
04:00 +26°C° 0 mm 0 m/S 751 mmHg 88%
05:00 +28°C° 0 mm 1 m/S 752 mmHg 88%
06:00 +28°C° 0 mm 1 m/S 752 mmHg 88%
07:00 +28°C° 0 mm 1 m/S 752 mmHg 88%
08:00 +30°C° 0.1 mm 1 m/S 753 mmHg 78%
09:00 +31°C° 0.1 mm 1 m/S 753 mmHg 69%
10:00 +34°C° 0.1 mm 2 m/S 754 mmHg 60%
11:00 +35°C° 0.2 mm 2 m/S 753 mmHg 57%
12:00 +35°C° 0.2 mm 2 m/S 753 mmHg 55%
13:00 +36°C° 0.2 mm 2 m/S 752 mmHg 52%
14:00 +36°C° 0.3 mm 2 m/S 751 mmHg 52%
15:00 +36°C° 0.3 mm 2 m/S 751 mmHg 52%
16:00 +36°C° 0.3 mm 2 m/S 750 mmHg 52%
17:00 +35°C° 0.1 mm 3 m/S 750 mmHg 58%
18:00 +33°C° 0.1 mm 3 m/S 750 mmHg 63%
19:00 +31°C° 0.1 mm 3 m/S 751 mmHg 68%
20:00 +30°C° 0.6 mm 3 m/S 751 mmHg 72%
21:00 +30°C° 0.6 mm 3 m/S 752 mmHg 75%
22:00 +29°C° 0.6 mm 3 m/S 752 mmHg 78%
23:00 +29°C° 0.1 mm 2 m/S 752 mmHg 80%

übermorgen, 9 März, Dienstag

Zeit Temperatur Niederschläge Wind Luftdruck Luftfeuchtigkeit
00:00 +29°C° 0.1 mm 2 m/S 752 mmHg 82%
01:00 +28°C° 0.1 mm 2 m/S 752 mmHg 84%
02:00 +28°C° 0 mm 2 m/S 751 mmHg 85%
03:00 +28°C° 0 mm 1 m/S 751 mmHg 87%
04:00 +27°C° 0 mm 1 m/S 751 mmHg 89%
05:00 +27°C° 0 mm 1 m/S 751 mmHg 89%
06:00 +25°C° 0 mm 0 m/S 751 mmHg 89%
07:00 +25°C° 0 mm 0 m/S 751 mmHg 89%
08:00 +29°C° 0.1 mm 1 m/S 752 mmHg 79%
09:00 +31°C° 0.1 mm 1 m/S 752 mmHg 69%
10:00 +34°C° 0.1 mm 2 m/S 753 mmHg 59%
11:00 +34°C° 0.1 mm 2 m/S 752 mmHg 58%
12:00 +34°C° 0.1 mm 2 m/S 752 mmHg 58%
13:00 +35°C° 0.1 mm 2 m/S 751 mmHg 57%
14:00 +35°C° 0.2 mm 2 m/S 751 mmHg 56%
15:00 +35°C° 0.2 mm 3 m/S 750 mmHg 54%
16:00 +36°C° 0.2 mm 3 m/S 749 mmHg 53%
17:00 +34°C° 1.2 mm 3 m/S 750 mmHg 60%
18:00 +33°C° 1.2 mm 3 m/S 750 mmHg 67%
19:00 +30°C° 1.2 mm 2 m/S 750 mmHg 75%
20:00 +29°C° 0.9 mm 2 m/S 751 mmHg 77%
21:00 +29°C° 0.9 mm 2 m/S 751 mmHg 78%
22:00 +29°C° 0.9 mm 2 m/S 752 mmHg 80%
23:00 +28°C° 0 mm 2 m/S 752 mmHg 82%

10 März, Mittwoch

Zeit Temperatur Niederschläge Wind Luftdruck Luftfeuchtigkeit
00:00 +28°C° 0 mm 2 m/S 752 mmHg 83%
01:00 +28°C° 0 mm 2 m/S 751 mmHg 84%
02:00 +28°C° 0 mm 1 m/S 751 mmHg 86%
03:00 +27°C° 0 mm 1 m/S 751 mmHg 87%
04:00 +27°C° 0 mm 1 m/S 750 mmHg 88%
05:00 +27°C° 0 mm 1 m/S 751 mmHg 88%
06:00 +25°C° 0 mm 0 m/S 751 mmHg 88%
07:00 +25°C° 0 mm 0 m/S 752 mmHg 88%
08:00 +29°C° 0 mm 1 m/S 752 mmHg 79%
09:00 +31°C° 0 mm 1 m/S 753 mmHg 69%
10:00 +34°C° 0 mm 2 m/S 753 mmHg 60%
11:00 +34°C° 0.2 mm 2 m/S 753 mmHg 58%
12:00 +35°C° 0.2 mm 2 m/S 752 mmHg 56%
13:00 +35°C° 0.2 mm 2 m/S 751 mmHg 54%
14:00 +35°C° 0.5 mm 3 m/S 751 mmHg 54%
15:00 +35°C° 0.5 mm 3 m/S 750 mmHg 54%
16:00 +35°C° 0.5 mm 3 m/S 750 mmHg 55%
17:00 +34°C° 0.8 mm 3 m/S 750 mmHg 60%
18:00 +31°C° 0.8 mm 3 m/S 750 mmHg 66%
19:00 +30°C° 0.8 mm 2 m/S 751 mmHg 72%
20:00 +30°C° 0.1 mm 2 m/S 751 mmHg 75%
21:00 +29°C° 0.1 mm 2 m/S 752 mmHg 78%
22:00 +29°C° 0.1 mm 2 m/S 753 mmHg 81%
23:00 +28°C° 0.1 mm 2 m/S 752 mmHg 82%

11 März, Donnerstag

Zeit Temperatur Niederschläge Wind Luftdruck Luftfeuchtigkeit
00:00 +28°C° 0.1 mm 1 m/S 752 mmHg 84%
01:00 +28°C° 0.1 mm 1 m/S 751 mmHg 86%
02:00 +28°C° 0 mm 1 m/S 751 mmHg 87%
03:00 +27°C° 0 mm 1 m/S 751 mmHg 88%
04:00 +27°C° 0 mm 1 m/S 751 mmHg 89%
05:00 +27°C° 0 mm 1 m/S 751 mmHg 89%
06:00 +27°C° 0 mm 1 m/S 751 mmHg 89%
07:00 +25°C° 0 mm 0 m/S 752 mmHg 89%
08:00 +29°C° 0 mm 1 m/S 752 mmHg 80%
09:00 +31°C° 0 mm 2 m/S 753 mmHg 70%
10:00 +34°C° 0 mm 2 m/S 753 mmHg 61%
11:00 +34°C° 0.1 mm 2 m/S 753 mmHg 59%
12:00 +34°C° 0.1 mm 2 m/S 752 mmHg 58%
13:00 +35°C° 0.1 mm 2 m/S 752 mmHg 56%
14:00 +35°C° 0.3 mm 2 m/S 751 mmHg 56%
15:00 +35°C° 0.3 mm 3 m/S 750 mmHg 57%
16:00 +35°C° 0.3 mm 3 m/S 750 mmHg 57%
17:00 +33°C° 1.6 mm 3 m/S 750 mmHg 62%
18:00 +31°C° 1.6 mm 3 m/S 750 mmHg 68%
19:00 +30°C° 1.6 mm 2 m/S 751 mmHg 74%
20:00 +29°C° 0.4 mm 2 m/S 751 mmHg 76%
21:00 +29°C° 0.4 mm 2 m/S 752 mmHg 78%
22:00 +28°C° 0.4 mm 2 m/S 752 mmHg 80%
23:00 +28°C° 0 mm 2 m/S 752 mmHg 81%

12 März, Freitag

Zeit Temperatur Niederschläge Wind Luftdruck Luftfeuchtigkeit
00:00 +28°C° 0 mm 2 m/S 752 mmHg 82%
01:00 +28°C° 0 mm 2 m/S 752 mmHg 83%
02:00 +28°C° 0 mm 1 m/S 751 mmHg 84%
03:00 +27°C° 0 mm 1 m/S 751 mmHg 85%
04:00 +27°C° 0 mm 1 m/S 750 mmHg 86%
05:00 +27°C° 0 mm 1 m/S 751 mmHg 86%
06:00 +27°C° 0 mm 1 m/S 751 mmHg 86%
07:00 +27°C° 0 mm 1 m/S 751 mmHg 86%
08:00 +29°C° 0 mm 1 m/S 752 mmHg 78%
09:00 +31°C° 0 mm 1 m/S 753 mmHg 70%
10:00 +32°C° 0 mm 2 m/S 753 mmHg 62%
11:00 +34°C° 0.1 mm 2 m/S 753 mmHg 59%
12:00 +35°C° 0.1 mm 2 m/S 752 mmHg 56%
13:00 +36°C° 0.1 mm 2 m/S 751 mmHg 53%
14:00 +35°C° 0.5 mm 2 m/S 751 mmHg 54%
15:00 +35°C° 0.5 mm 3 m/S 750 mmHg 56%
16:00 +35°C° 0.5 mm 3 m/S 750 mmHg 57%
17:00 +34°C° 1 mm 3 m/S 750 mmHg 63%
18:00 +31°C° 1 mm 3 m/S 750 mmHg 69%
19:00 +30°C° 1 mm 3 m/S 750 mmHg 75%
20:00 +29°C° 0.2 mm 2 m/S 751 mmHg 77%
21:00 +29°C° 0.2 mm 2 m/S 751 mmHg 79%
22:00 +29°C° 0.2 mm 2 m/S 752 mmHg 80%
23:00 +28°C° 0.1 mm 2 m/S 752 mmHg 81%
Mehr zeigen

Wir brauchen deine Erlaubnis

Meteoprog und unser Service Anbieter werden persönliche Daten aufbewahren, so wie Cookies, Geräte Bezeichnung oder ähnliche Technologien von deinem Gerät und Prozess, so wie Persönliche Daten Inhalte und Werbungen, genauso wie social Media und den Verkehr zu analysieren.

  • Aufbewahrung und/oder Zugang zu deiner Geräte Informationen.

    Cookies, Geräte Bezeichnung oder andere Informationen, können aufbewahrt oder Zugang zu deinem Gerät erhalten, für den Grund, der oben angegeben wird.

  • Personalisierte Werbung und Inhalte, Messungen, Einblick in das Publikum und Produkt Entwicklung.

    Werbungen und Inhalte können personalisiert werden, basierend auf ein Profil. Mehr Daten können besser personalisierte Werbungen und Inhalte hinzufügen. Werbung und Inhalte können gezeigt und gemessen werden. Einblicke über das Publikum, welche die Werbung gesehen haben und den Inhalt, können abgeleitet werden. So wie Daten können genutzt werden, um es zu verbessern oder die Benutzer Erfahrung zu verbessern das System und die Software.

Wenn du “Ich stimme zu” klickst, erlaubst du uns, die Cookies zu benutzen die Geräte Bezeichnung, den Web oder ähnliche Technologien zu benutzen. Deine Settings, können in deinem Gerät bei deinem Browser geändert werden.

Für den bestimmten Zweck, berechtigten Interessen beruhen darauf, mehr als auf den Inhalt. Du kannst mehr darüber in unseren Privaten und Cookie Politik lesen.